DELTA 1 DEB, 1529

Orbit data source: Space-Track

DELTA 1 DEB, 1529 is space debris in SSO originally from a launch on Fri, 02 Jul 1965 UTC launched from the Air Force Eastern Test Range (AFETR). Debris objects in space refer to the collection of defunct objects orbiting the Earth. Examples of debris include non-operational satellites, rocket bodies, and fragments generated from explosions, collisions, or faulty payload assembly.

Loading next visibility...
DELTA 1 DEB details
Identifier
1529, 1965-051D
Orbit
SSO
Last TLE update21 hours ago
Origin
Flag of USESSA (US)
ManufacturerUnknown
MissionSpacecraft
Bus & MotorUnknown
Mass1 kg wet, 1 kg dry
Launch date (UTC)
1965-07-02 (60 years ago)
Launch vehicleUnknown
Launch site
Air Force Eastern Test Range (AFETR)
Object type
Payload
Rocket body
Debris
Shape & HBRCyl + 1 Cable, 3.5 m
Radar Cross Section3.500 m², Small (<0.1 m²)

Expand to show TLE details & history

TLE from 21 hours ago
0 DELTA 1 DEB
1 01529U 65051D   25047.14489280  .00000438  00000-0  21016-3 0  9996
2 01529  99.0532 269.2443 0036071 179.8592 180.2602 14.23957378 86265
Epoch: 2025-02-16T03:28Z
Definitive object data (Epoch: 2025-02-16T03:28:38.737Z)
Latitude-0.00002°
Longitude70.70074°
Altitude840.849 km
Speed7.419 km/s
True Right ascension17h 56m 58s
True Declination0° 00' 00"
Sunlit
Object was in daylight at TLE epoch
Visualization TLE readout
Latitude58.53725°
Longitude56.56887°
Altitude833.858 km
Speed7.435 km/s
Apparent Right ascension15h 45m 26s
Apparent Declination13° 53' 38"
Sunlit
Object is in daylight
Visualization observer readout
Local Sidereal Time02:48:06
Azimuth343.032° N
Elevation-34.561°
Doppler factor1
Orbital elements
Apogee altitude835.096 km
Perigee altitude783.245 km
Semi-major axis7,187.307 km
Eccentricity0.0036071
Inclination99.0532°
RAAN269.2443°
Arg. of periapsis179.8592°
True anomaly180.25833°
Mean anomaly180.2602°
Eccentric anomaly180.25926°
Mean motion3.562 °/min
BSTAR0.00021016
Orbital period101.07 mins
Loading maneuver chart data...
Loading historical data...
Loading historical data...
Loading historical data...
Loading historical data...
Loading historical data...
Loading historical data...
Loading historical data...
Other satellites on launch #51 in the year 1965 (1965-07-02 UTC)

DELTA 1 DEB Visibility forecast

Observer location: undefined°, undefined

Span
Click to sort rows by Start time (UTC) header in descending order
Start Az.
Max El. time (UTC)
Max El. Az.
Max El.
End time (UTC)
End Az.
9 mins2025-02-17 03:39:40.517Z13.165° NNE2025-02-17 03:44:40.517Z215.184° SW44.671°2025-02-17 03:48:40.517Z196.886° SSW
6 mins2025-02-17 13:22:40.517Z96.294° ESE2025-02-17 13:25:40.517Z55.986° ENE18.417°2025-02-17 13:28:40.517Z20.467° NNE
9 mins2025-02-17 15:00:40.517Z184.931° SSW2025-02-17 15:04:40.517Z260.032° W39.643°2025-02-17 15:09:40.517Z336.485° NNW
|